Location: Allentsteig
(48.6833°N, 15.3167°E)
Time: 22:55:19
(UTC+00:00)

USA 238 DEB - Pass Details

Date: 25 January 2021
Orbit: 995 x 1217 km, 63.4° (Epoch: 07 March)

Event Time Altitude Azimuth Distance (km) Brightness Sun altitude
Rises 03:42:34 0° 179° (S) 3,710 6.5 -28.6°
Reaches altitude 10° 03:45:30 10° 167° (SSE) 2,781 6.0 -28.1°
Maximum altitude 03:50:49 27° 112° (ESE) 1,857 5.5 -27.2°
Drops below altitude 10° 03:56:21 10° 58° (ENE) 2,894 6.7 -26.3°
Sets 03:59:26 0° 47° (NE) 3,890 7.3 -25.8°
